Wind_Speed
14 14 15 15 15 16 17 17 18 18 19 19 19 19 19 20 20 20 20 21 20 20 20 19 19 19 20 20 20 21 21 21 21 21 22 22 23 23 24 25 25 26 26
14 14 15 14 14 15 15 16 17 18 19 19 19 19 20 21 21 20 19 19 19 19 19 20 20 20 20 20 20 20 20 20 20 20 21 22 22 23 24 25 26 26 26
15 14 14 15 15 15 15 16 17 18 18 19 19 19 20 20 20 20 19 18 18 19 19 19 19 19 20 20 19 19 19 20 21 21 22 22 23 24 25 25 25 26 27
15 15 15 15 15 14 15 15 15 16 17 18 19 19 19 19 19 18 17 17 18 19 19 19 20 19 19 19 19 19 20 21 21 22 22 23 24 24 25 25 25 26 26
15 16 16 15 15 15 15 15 16 16 17 18 18 19 19 19 18 18 18 19 20 20 20 20 20 20 20 19 19 20 21 21 21 22 23 24 24 25 25 25 26 27 27
16 16 16 15 15 16 16 15 16 16 16 17 17 17 18 18 18 18 19 20 20 20 20 20 20 21 21 20 20 20 20 21 21 22 23 24 24 25 25 25 25 26 26
16 16 16 16 16 16 17 16 16 15 15 15 15 16 17 17 17 18 18 19 19 18 19 20 21 20 20 20 20 21 21 22 22 23 24 24 24 25 25 25 25 25 25
17 17 16 16 17 17 16 16 15 15 15 15 16 16 16 17 17 17 18 18 18 18 18 18 19 20 19 20 20 21 21 22 23 24 24 24 24 25 25 25 25 25 24
17 17 17 17 17 17 16 16 16 16 16 16 16 15 15 16 17 18 18 17 17 16 17 17 18 18 19 20 20 20 21 22 22 23 24 24 24 25 25 25 25 25 24
17 17 18 18 18 17 16 17 17 17 16 16 16 15 16 16 16 17 17 17 16 15 16 16 17 18 19 19 19 20 20 21 22 23 23 24 24 24 24 25 25 24 24
18 18 18 18 18 18 17 16 16 16 16 16 16 15 16 16 16 16 16 16 15 15 15 16 17 17 18 18 19 20 20 21 22 23 23 23 23 23 23 24 24 23 24
19 19 18 18 18 18 17 16 16 16 16 16 16 16 16 17 16 16 16 16 15 15 15 16 17 17 18 19 20 20 21 21 22 22 22 23 23 23 23 23 23 23 24
18 19 19 18 18 17 16 16 17 16 16 16 16 17 17 16 16 16 16 16 15 16 16 17 17 18 18 19 20 21 22 22 22 22 22 23 23 23 23 23 23 24 24
19 18 18 18 18 18 17 17 16 16 17 17 17 16 16 16 17 16 16 16 16 17 17 17 17 18 19 20 20 21 21 22 22 22 22 22 22 23 23 24 24 25 25
19 19 19 18 18 18 17 17 17 17 17 17 16 16 16 17 16 16 16 17 17 18 18 18 18 19 20 20 20 20 20 21 21 21 22 22 22 23 23 23 24 25 24
19 19 20 20 19 18 17 17 17 17 16 16 16 17 17 17 17 17 17 17 17 18 19 19 19 19 20 20 20 20 20 21 21 21 22 22 22 23 23 24 25 24 24
20 20 20 20 19 19 18 18 17 16 16 17 17 17 17 17 17 17 17 17 18 18 18 18 18 19 19 20 20 20 20 21 21 21 22 22 22 22 23 24 23 23 22
20 19 19 19 19 19 18 18 17 17 17 17 17 17 17 17 17 17 17 18 18 18 18 18 18 19 20 20 20 20 20 21 21 21 21 21 21 22 22 22 22 21 21
20 19 19 19 18 18 18 18 18 18 18 18 18 18 18 18 18 18 18 18 18 18 18 18 18 19 19 20 20 20 20 21 21 20 20 21 21 21 21 21 21 21 21
19 19 19 18 17 17 18 18 18 18 18 18 18 18 18 18 17 18 18 18 18 18 18 18 19 19 19 19 19 19 19 20 20 20 19 20 20 20 20 19 19 20 20
18 18 18 17 17 17 17 18 18 18 18 18 18 18 18 18 17 17 17 17 17 17 17 18 18 18 18 18 19 19 19 18 19 19 19 19 19 19 18 18 18 18 18
17 17 17 17 16 16 17 17 17 18 18 18 18 18 18 17 17 17 16 16 16 16 16 17 17 17 17 17 17 17 18 18 17 18 18 19 19 18 17 16 16 17 17
16 17 17 17 17 17 17 17 17 17 17 17 17 17 17 17 16 16 16 16 16 16 16 16 16 16 15 16 16 16 17 18 17 17 18 18 18 18 17 16 16 16 17
16 16 17 17 18 17 17 16 16 16 16 16 16 16 16 16 16 16 16 16 16 15 15 15 15 15 15 15 16 16 17 17 17 17 18 17 17 17 16 15 16 16 16
16 17 17 18 18 17 18 17 16 16 16 16 16 17 17 16 15 16 16 16 16 16 16 15 14 14 14 14 14 15 15 15 16 16 17 16 16 15 15 15 16 16 16
16 16 16 17 17 17 17 17 17 16 16 16 17 17 17 17 17 17 16 16 16 16 16 15 15 14 14 13 13 14 14 15 15 15 15 15 15 14 14 15 15 15 15
Wind_Direction
270 271 274 274 271 271 271 270 271 272 273 273 274 276 275 276 278 279 277 277 276 275 276 277 279 282 283 283 284 286 286 288 290 288 288 290 289 288 289 289 288 285 283
270 273 276 275 273 273 271 271 272 273 275 274 274 275 276 275 276 277 275 277 278 275 275 277 278 282 285 285 286 287 287 288 289 290 291 291 290 288 288 289 288 286 286
271 274 280 278 274 275 276 276 276 276 276 275 272 273 275 275 276 275 275 276 278 279 278 280 283 285 286 287 287 288 290 292 293 293 292 292 293 291 290 290 289 288 288
271 273 279 280 278 277 280 280 279 279 277 277 274 275 277 277 276 277 278 279 279 280 281 283 285 284 285 286 287 289 291 294 296 295 294 294 294 294 293 293 292 290 290
272 275 278 280 284 282 280 282 281 279 277 278 278 278 278 278 277 277 278 280 279 282 283 283 284 285 283 283 284 286 289 292 295 295 295 296 296 296 295 295 294 292 292
274 277 278 281 286 284 282 282 281 280 280 281 281 280 280 278 280 281 281 282 282 282 282 282 284 285 285 283 285 287 289 291 294 296 297 297 298 297 297 296 296 295 294
274 277 280 283 286 285 282 280 278 278 279 281 283 283 280 279 281 283 286 286 284 281 282 283 283 284 285 285 287 287 289 291 294 296 297 298 299 299 298 297 297 297 297
273 276 280 283 284 285 281 276 275 276 278 279 282 282 281 280 282 285 288 287 287 285 284 282 283 284 284 287 288 289 292 294 296 297 299 299 300 300 300 299 299 298 296
271 277 281 284 285 283 280 275 274 274 276 280 282 283 285 285 286 289 291 291 289 287 285 285 286 285 286 289 290 291 294 296 298 300 302 302 301 301 301 300 299 299 298
272 276 280 283 284 280 277 276 273 272 275 279 281 285 288 288 289 291 291 292 291 289 290 290 290 291 291 291 291 292 295 296 299 301 303 304 303 301 300 300 300 299 298
271 276 280 282 281 278 274 275 275 274 276 279 282 284 285 287 289 291 292 291 290 289 290 292 293 294 294 294 294 294 295 297 299 301 302 303 303 303 302 302 301 300 300
272 277 279 280 279 275 272 275 276 276 276 278 281 282 284 287 288 290 290 289 290 290 290 293 294 294 295 297 299 299 298 298 300 301 302 304 304 303 303 304 302 301 302
275 278 277 276 275 274 272 274 277 277 274 277 281 283 284 284 286 289 289 288 290 290 290 292 294 295 297 299 301 302 301 301 301 301 303 304 303 303 303 304 303 302 302
275 275 275 275 275 275 275 275 274 276 276 276 278 281 282 284 287 289 289 289 290 290 290 293 295 296 298 299 300 302 304 304 303 302 302 303 304 304 304 304 304 304 303
270 271 273 273 273 271 272 274 275 276 279 278 279 281 284 287 289 291 290 289 289 290 289 291 294 296 297 298 299 302 304 306 305 303 303 304 304 305 305 306 308 308 305
269 269 271 271 271 271 272 274 277 279 281 281 283 285 287 289 290 290 289 287 288 290 290 290 292 295 296 297 299 300 303 305 306 305 306 305 305 305 305 307 310 311 309
270 270 269 268 268 269 271 274 277 279 280 281 282 284 286 287 288 288 287 288 289 291 290 290 291 293 296 298 300 302 302 303 304 304 305 305 306 306 308 309 311 311 312
270 270 270 268 267 266 267 270 273 277 280 281 282 284 287 288 288 288 288 290 291 290 289 289 290 293 296 298 300 303 304 304 304 304 305 307 308 308 309 311 312 312 312
269 270 269 269 268 266 267 269 272 275 277 279 281 283 285 288 289 288 289 290 291 291 289 288 290 294 298 300 302 303 305 306 307 306 306 308 309 310 310 310 310 312 313
270 269 267 267 266 266 266 268 272 275 276 277 279 281 284 287 289 290 289 289 290 290 289 289 291 294 298 301 305 307 307 308 310 310 308 309 310 311 311 310 311 313 314
267 267 264 263 264 266 267 268 272 274 276 277 278 280 283 286 288 289 290 289 289 290 290 291 292 295 297 301 305 307 309 311 314 314 314 313 314 313 313 313 315 317 319
265 266 265 265 264 265 267 269 271 274 275 276 279 282 284 286 287 288 289 289 290 290 292 294 296 299 301 302 304 306 309 311 313 315 316 316 316 316 315 316 318 320 321
265 267 267 266 264 265 266 269 271 273 276 277 277 280 283 284 285 286 287 288 289 291 292 295 297 299 301 303 304 306 309 311 313 316 318 319 319 318 318 319 319 320 321
265 266 265 264 263 265 266 269 271 273 277 280 280 282 285 285 284 284 286 287 289 291 292 294 297 299 301 303 306 307 310 312 313 314 317 320 321 321 320 321 323 325 324
266 265 263 261 262 264 263 265 270 274 276 280 282 284 285 285 284 283 284 285 286 286 288 290 293 297 300 304 308 310 313 316 318 318 319 321 322 323 322 322 325 328 328
270 267 265 263 263 264 263 264 268 274 276 277 279 281 282 283 283 283 282 282 284 285 286 289 291 291 295 300 305 309 312 314 316 317 320 322 323 323 323 323 326 329 330
Height
5793 5792 5791 5791 5790 5789 5789 5789 5788 5788 5787 5787 5786 5785 5784 5783 5782 5781 5780 5779 5778 5778 5777 5776 5775 5774 5772 5771 5770 5768 5766 5765 5763 5761 5758 5756 5754 5752 5750 5747 5745 5743 5741
5789 5788 5788 5787 5786 5785 5784 5784 5783 5783 5782 5781 5780 5779 5778 5778 5777 5776 5775 5774 5773 5772 5771 5770 5769 5768 5767 5765 5764 5762 5761 5759 5757 5755 5752 5750 5747 5745 5743 5740 5738 5735 5733
5785 5784 5784 5783 5782 5781 5780 5779 5778 5777 5776 5776 5775 5774 5773 5772 5771 5771 5769 5768 5768 5767 5766 5765 5764 5762 5761 5760 5758 5757 5755 5753 5751 5748 5746 5744 5741 5739 5736 5733 5731 5728 5725
5781 5780 5779 5778 5777 5776 5775 5774 5773 5772 5771 5770 5770 5768 5767 5766 5766 5765 5764 5763 5762 5762 5760 5759 5758 5757 5756 5754 5753 5751 5749 5747 5745 5742 5740 5738 5735 5732 5729 5726 5724 5720 5718
5777 5776 5775 5774 5773 5772 5771 5769 5768 5767 5766 5765 5764 5762 5761 5761 5760 5759 5758 5758 5757 5755 5754 5753 5752 5751 5750 5748 5747 5745 5743 5741 5739 5737 5734 5731 5728 5726 5723 5719 5717 5714 5711
5772 5771 5770 5769 5768 5767 5766 5764 5763 5762 5761 5760 5758 5757 5756 5755 5754 5753 5752 5751 5750 5749 5748 5747 5746 5744 5743 5742 5740 5739 5738 5736 5733 5731 5728 5725 5722 5719 5716 5713 5710 5707 5704
5767 5766 5765 5764 5763 5762 5761 5759 5758 5758 5757 5755 5754 5752 5751 5750 5749 5748 5746 5745 5744 5742 5741 5740 5739 5738 5737 5736 5734 5733 5731 5729 5727 5725 5722 5719 5716 5713 5709 5706 5703 5700 5697
5762 5761 5760 5759 5758 5757 5755 5754 5754 5753 5752 5751 5749 5748 5746 5745 5744 5742 5741 5739 5738 5736 5735 5734 5733 5731 5730 5729 5728 5726 5725 5723 5721 5718 5716 5712 5709 5706 5703 5700 5696 5693 5691
5757 5756 5755 5754 5753 5751 5750 5749 5748 5748 5747 5745 5744 5743 5741 5740 5739 5737 5736 5734 5732 5731 5729 5728 5727 5726 5725 5723 5722 5720 5718 5716 5714 5711 5709 5705 5702 5699 5696 5693 5690 5687 5684
5752 5751 5750 5749 5747 5746 5745 5744 5743 5742 5741 5740 5739 5738 5736 5735 5734 5732 5730 5729 5727 5725 5724 5723 5722 5720 5719 5717 5716 5714 5712 5710 5707 5705 5702 5699 5696 5693 5689 5686 5684 5681 5678
5746 5745 5744 5743 5741 5740 5740 5738 5738 5737 5736 5735 5734 5733 5731 5730 5729 5727 5726 5724 5722 5720 5719 5718 5716 5715 5713 5711 5710 5708 5706 5704 5701 5698 5695 5692 5689 5686 5683 5680 5677 5674 5671
5740 5739 5738 5737 5735 5735 5734 5733 5732 5731 5730 5730 5729 5727 5726 5725 5724 5722 5720 5719 5717 5716 5714 5713 5711 5709 5708 5706 5704 5702 5700 5697 5694 5691 5688 5685 5682 5679 5676 5673 5670 5667 5664
5733 5733 5732 5731 5730 5729 5728 5728 5727 5726 5725 5724 5723 5722 5721 5719 5718 5717 5715 5714 5712 5711 5709 5708 5706 5704 5702 5700 5698 5695 5693 5690 5688 5685 5682 5679 5676 5673 5670 5667 5664 5661 5658
5727 5727 5726 5725 5724 5724 5723 5722 5721 5721 5720 5719 5718 5716 5715 5714 5713 5711 5709 5708 5707 5705 5704 5702 5701 5699 5696 5694 5692 5689 5687 5684 5681 5679 5676 5673 5670 5667 5664 5661 5657 5654 5651
5720 5720 5719 5719 5718 5718 5717 5716 5716 5715 5714 5713 5712 5711 5710 5709 5707 5706 5704 5703 5701 5700 5698 5697 5695 5693 5691 5688 5686 5684 5681 5678 5675 5672 5670 5667 5664 5661 5658 5654 5651 5647 5643
5713 5713 5713 5713 5712 5712 5711 5711 5710 5710 5709 5708 5707 5706 5705 5703 5702 5700 5699 5697 5695 5694 5692 5691 5689 5687 5685 5682 5680 5678 5675 5672 5670 5667 5664 5661 5658 5655 5652 5648 5644 5640 5637
5707 5706 5706 5706 5705 5705 5705 5705 5704 5704 5703 5702 5701 5700 5699 5697 5696 5695 5693 5692 5690 5688 5687 5685 5683 5681 5679 5677 5674 5672 5669 5667 5664 5661 5658 5655 5652 5649 5646 5642 5639 5635 5631
5699 5699 5699 5699 5698 5698 5698 5698 5698 5697 5697 5696 5695 5694 5693 5692 5690 5689 5687 5686 5684 5682 5681 5679 5677 5676 5673 5671 5669 5666 5664 5661 5658 5655 5652 5649 5646 5643 5640 5636 5633 5629 5625
5693 5692 5692 5692 5692 5692 5692 5692 5692 5691 5691 5690 5689 5688 5687 5686 5684 5683 5681 5680 5678 5677 5675 5673 5672 5670 5668 5666 5663 5661 5658 5656 5653 5650 5647 5644 5640 5637 5634 5630 5627 5624 5620
5686 5686 5685 5685 5685 5685 5686 5686 5686 5685 5685 5684 5683 5682 5681 5680 5679 5677 5676 5674 5673 5671 5670 5668 5667 5665 5663 5660 5658 5656 5653 5651 5648 5645 5641 5638 5635 5631 5628 5625 5622 5618 5615
5679 5679 5679 5679 5679 5680 5680 5680 5680 5679 5679 5678 5677 5676 5675 5674 5673 5671 5670 5668 5667 5666 5664 5663 5661 5659 5657 5655 5653 5651 5648 5646 5643 5640 5637 5633 5630 5626 5623 5619 5616 5614 5611
5674 5674 5674 5674 5674 5674 5674 5674 5674 5673 5673 5672 5672 5671 5669 5668 5667 5666 5665 5663 5662 5660 5659 5657 5656 5654 5652 5651 5648 5646 5644 5641 5638 5635 5632 5629 5625 5622 5618 5615 5612 5609 5607
5668 5668 5668 5668 5668 5669 5669 5668 5668 5668 5667 5667 5666 5665 5664 5663 5662 5660 5659 5658 5657 5655 5654 5652 5651 5650 5648 5646 5644 5642 5640 5637 5634 5631 5628 5625 5621 5618 5615 5612 5609 5606 5603
5663 5663 5663 5663 5663 5663 5663 5663 5663 5663 5662 5661 5661 5659 5658 5657 5656 5655 5654 5653 5652 5651 5649 5647 5646 5645 5643 5641 5639 5637 5635 5633 5630 5627 5624 5621 5618 5615 5611 5609 5606 5603 5600
5658 5658 5658 5657 5658 5658 5658 5658 5658 5658 5657 5656 5655 5654 5653 5652 5651 5650 5649 5648 5647 5646 5644 5643 5641 5640 5639 5637 5635 5633 5631 5629 5626 5623 5621 5618 5615 5612 5609 5606 5603 5600 5598
5653 5652 5652 5652 5652 5653 5653 5653 5653 5652 5652 5651 5650 5649 5648 5647 5646 5645 5644 5643 5641 5640 5639 5638 5637 5635 5634 5633 5631 5629 5628 5625 5623 5620 5617 5615 5612 5609 5606 5603 5601 5598 5595